Find Starlink 31603

NORAD ID: 59201 Int'l Des: 2024-046 Owner: SPXS Country: US Constellation: starlink operational
LEOCIRCULAR

リアルタイム位置

3D地球を読み込み中...

Starlink 31603について

説明を読み込み中...

次回通過

Passes for default location (London). Set your location on the main map for personalized predictions.

高度履歴

Loading altitude history...

軌道要素

1 59201U 24046A 26121.45117221 .00000910 00000-0 42860-4 0 9992
2 59201 53.1609 270.5482 0001247 93.2672 266.8471 15.30197640121121
Epoch: May 1, 2026 • Age: 9 hours

現在のステータス

高度 494.6 km
速度 7.62 km/s
衛星直下点 -53.31°S, 22.45°E
打ち上げ日 Mar 11, 2024
運用期間 2.1 years
タイプ internet

技術仕様

分類 Payload
質量 730.00 kg
乾燥質量 700.00 kg
総質量 730.00 kg
長さ 0.30 m
直径 4.10 m
スパン 29.00 m
形状 Box + pan
製造者 SPXS
バスタイプ Starlink V2M
フェーズステータス In Orbit
所有者/国 SPXS/US

Most Searched